Content
SEND FEEDBACK

Daily
Averages
Monthly
Summary
Portugal

PORTO, PORTUGAL


Home > Europe > Portugal
Elevation: 239 feet     Latitude: 41 14N     Longitude: 008 41W

WEATHER
 
SELECT A DAY
Number of Records: 289,494;   Date Range: 1/1/99 - 9/30/14
 
SHARE

PRINT THIS DATA

[ ← Previous Day ]
WEATHER ALMANAC - JANUARY 31, 2013
[ Next Day → ]
[ °C ]   °F
Weather ElementAverageHighLow
Temperature57.1 °F61 °F (12:00 pm)51.8 °F (9:00 pm)
Dewpoint51 °F53.6 °F (5:00 pm)46 °F (12:00 pm)
Humidity80 %100 % (10:30 pm)48 % (12:00 pm)
Barometer30.45 in30.51 in (12:00 pm)30.42 in (4:30 am)
Wind Speed7.3 mph11.5 mph (2:00 am)
Weather ElementAverage
Visibility6.1 mi
Wind DirectionS (180.4 °)

Weather ElementTotal
Precipitation---
Heating Degree Days8.6 (Base 65)
Growing Degree Days6.4 (Base 50)
Averaged from 55 records on January 31, 2013
WEATHER CONDITIONS BREAKOUT
WIND DIRECTION BREAKOUT
WEATHER BY HOUR - JANUARY 31, 2013
[ °C ]   °F
Local TimeTemperatureDewpointHumidityBarometerVisibilityWind DirectionWind SpeedGust SpeedPrecipitationEventsConditions
12:00 AM57.2 °F51.8 °F82 %30.45 in6.2 miSouth (170°)9.2 mphMostly Cloudy
12:30 AM57.2 °F51.8 °F82 %30.45 in6.2 miSouth (170°)9.2 mphMostly Cloudy
1:00 AM57.2 °F51.8 °F82 %30.45 in6.2 miSouth (170°)10.4 mphMostly Cloudy
1:30 AM57.2 °F51.8 °F82 %30.45 in6.2 miSouth (180°)9.2 mphMostly Cloudy
2:00 AM57.2 °F51.8 °F82 %30.45 in6.2 miSouth (180°)11.5 mphMostly Cloudy
2:30 AM57.2 °F51.8 °F82 %30.45 in6.2 miSouth (180°)10.4 mphMostly Cloudy
3:00 AM57.2 °F51.8 °F82 %30.45 in6.2 miSouth (180°)10.4 mphMostly Cloudy
3:00 AM58.0 °F48.0 °F62 %30.46 in6.0 miSouth (180°)6.7 mphPartly Cloudy
3:30 AM57.2 °F50.0 °F77 %30.45 in6.2 miSouth (180°)11.5 mphMostly Cloudy
4:00 AM57.2 °F50.0 °F77 %30.45 in6.2 miSouth (190°)11.5 mphMostly Cloudy
4:30 AM57.2 °F51.8 °F82 %30.42 in6.2 miSouth (170°)11.5 mphMostly Cloudy
5:00 AM55.4 °F51.8 °F88 %30.42 in6.2 miSouth (180°)6.9 mphMostly Cloudy
5:30 AM57.2 °F50.0 °F77 %30.42 in6.2 miSouth (180°)6.9 mphMostly Cloudy
6:00 AM57.2 °F50.0 °F77 %30.45 in6.2 miSouth (180°)8.1 mphMostly Cloudy
6:00 AM57.0 °F48.0 °F65 %30.46 in6.0 miSSE (160°)4.5 mphPartly Cloudy
6:30 AM57.2 °F51.8 °F82 %30.45 in6.2 miSouth (170°)8.1 mphMostly Cloudy
7:00 AM57.2 °F50.0 °F77 %30.45 in6.2 miSouth (180°)8.1 mphMostly Cloudy
7:30 AM55.4 °F50.0 °F82 %30.45 in6.2 miSouth (170°)6.9 mphMostly Cloudy
8:00 AM55.4 °F50.0 °F82 %30.45 in6.2 miSSE (150°)4.6 mphMostly Cloudy
8:30 AM55.4 °F51.8 °F88 %30.45 in6.2 miSE (140°)5.8 mphScattered Clouds
9:00 AM57.2 °F50.0 °F77 %30.48 in6.2 miSE (140°)6.9 mphScattered Clouds
9:00 AM56.0 °F49.0 °F69 %30.49 in6.0 miESE (120°)4.5 mphPartly Cloudy
9:30 AM59.0 °F51.8 °F77 %30.48 in6.2 miSE (140°)5.8 mphMostly Cloudy
10:00 AM59.0 °F51.8 °F77 %30.48 in6.2 miSSE (150°)5.8 mphMostly Cloudy
10:30 AM60.8 °F50.0 °F68 %30.48 in6.2 miSouth (180°)8.1 mphMostly Cloudy
11:00 AM60.8 °F50.0 °F68 %30.48 in6.2 miSouth (180°)9.2 mphMostly Cloudy
11:30 AM60.8 °F50.0 °F68 %30.48 in6.2 miSSW (200°)8.1 mphMostly Cloudy
12:00 PM60.8 °F50.0 °F68 %30.48 in6.2 miSouth (190°)10.4 mphMostly Cloudy
12:00 PM61.0 °F46.0 °F48 %30.51 in12.0 miSouth (190°)8.9 mphPartly Cloudy
12:30 PM60.8 °F50.0 °F68 %30.48 in6.2 miSSW (200°)9.2 mphMostly Cloudy
1:00 PM60.8 °F51.8 °F72 %30.48 in6.2 miSouth (190°)9.2 mphMostly Cloudy
1:30 PM60.8 °F51.8 °F72 %30.45 in6.2 miSSW (200°)8.1 mphMostly Cloudy
2:00 PM60.8 °F51.8 °F72 %30.45 in6.2 miSSW (200°)5.8 mphMostly Cloudy
2:30 PM59.0 °F51.8 °F77 %30.45 in6.2 miSW (220°)5.8 mphMostly Cloudy
3:00 PM59.0 °F51.8 °F77 %30.42 in6.2 miSW (230°)4.6 mphMostly Cloudy
3:00 PM59.0 °F49.0 °F61 %30.46 in11.0 miSSW (210°)4.5 mphPartly Cloudy
3:30 PM59.0 °F51.8 °F77 %30.42 in6.2 miSW (220°)4.6 mphMostly Cloudy
4:00 PM59.0 °F51.8 °F77 %30.42 in6.2 miSW (220°)4.6 mphMostly Cloudy
4:30 PM59.0 °F51.8 °F77 %30.42 in6.2 miSSW (210°)4.6 mphMostly Cloudy
5:00 PM57.2 °F53.6 °F88 %30.42 in6.2 miSSW (210°)5.8 mphMostly Cloudy
5:30 PM57.2 °F51.8 °F82 %30.42 in6.2 miSSW (200°)5.8 mphMostly Cloudy
6:00 PM57.2 °F53.6 °F88 %30.42 in6.2 miSouth (190°)4.6 mphMostly Cloudy
6:00 PM57.0 °F51.0 °F75 %30.45 in7.0 miSouth (190°)4.5 mphPartly Cloudy
6:30 PM55.4 °F53.6 °F94 %30.42 in6.2 miSouth (190°)6.9 mphMostly Cloudy
7:00 PM55.4 °F53.6 °F94 %30.42 in6.2 miSouth (190°)6.9 mphMostly Cloudy
7:30 PM53.6 °F51.8 °F94 %30.42 in5.0 miSSE (160°)6.9 mphMostly Cloudy
8:00 PM53.6 °F51.8 °F94 %30.42 in5.0 miSSE (160°)6.9 mphMostly Cloudy
8:30 PM53.6 °F51.8 °F94 %30.42 in5.0 miSSE (160°)6.9 mphScattered Clouds
9:00 PM51.8 °F50.0 °F94 %30.42 in4.3 miSouth (180°)4.6 mphScattered Clouds
9:00 PM52.0 °F50.0 °F89 %30.45 in4.0 miSouth (180°)2.2 mphMist
9:30 PM53.6 °F51.8 °F94 %30.42 in5.0 miSSE (160°)5.8 mphMostly Cloudy
10:00 PM51.8 °F50.0 °F94 %30.42 in5.0 miSouth (170°)8.1 mphScattered Clouds
10:30 PM51.8 °F51.8 °F100 %30.42 in5.0 miSouth (170°)6.9 mphMostly Cloudy
11:00 PM53.6 °F51.8 °F94 %30.42 in3.7 miSouth (180°)9.2 mphMostly Cloudy
11:30 PM53.6 °F51.8 °F94 %30.42 in3.7 miSouth (180°)9.2 mphMostly Cloudy
Hourly data recorded from LPPR, located miles away from Porto, Portugal







STORIES FROM OUR PARTNERS